Regional Weather Roundup
Issued by NWS Northern Indiana

Home | Current Version | Previous Version | Graphics & Text | Print | Product List | Glossary On
Versions: 1 2 3 4 5 6 7 8 9 10 11 12 13 14 15 16 17 18 19 20 21 22 23 24 25 26 27 28 29 30 31 32 33 34 35 36 37 38 39 40 41 42 43 44 45 46 47 48 49 50
000
ASUS43 KIWX 272110
RWRIWX

KIWX WEATHER ROUNDUP
NATIONAL WEATHER SERVICE NORTHERN INDIANA
500 PM EDT THU AUG 27 2015

NOTE: "FAIR" INDICATES FEW OR NO CLOUDS BELOW 12,000 FEET WITH NO
SIGNIFICANT WEATHER AND/OR OBSTRUCTIONS TO VISIBILITY.

* THESE STATIONS ARE NOT UNDER NWS QUALITY CONTROL. THEY ALSO MAY NOT
  REPORT WEATHER SUCH AS PRECIPITATION OR FOG.

INZ001>027-272200-
NORTHERN INDIANA

CITY           SKY/WX    TMP DP  RH WIND       PRES   REMARKS
GARY*          PTSUNNY   72  55  56 NE6       30.16F
VALPARAISO     FAIR      73  56  54 CALM      30.16F
MICHIGAN CITY* CLOUDY    70  54  56 CALM      30.17S
LAPORTE*       FAIR      71  56  57 CALM      30.17S
KNOX*          FAIR      72  52  49 E5        30.15F
SOUTH BEND     CLOUDY    70  56  61 E8        30.17F
ELKHART*       PTSUNNY   70  54  56 E5        30.17F
GOSHEN         PTSUNNY   69  54  58 CALM      30.17F
MONTICELLO*    PTSUNNY   74  59  58 E3        30.14S
LOGANSPORT*    FAIR      73  50  43 E5        30.15F
ROCHESTER*     FAIR      77  54  44 SE3       30.15F
WARSAW*        PTSUNNY   70  55  60 NE3       30.16F
ANGOLA*        PTSUNNY   73  66  78 W3        30.18R
FORT WAYNE     PTSUNNY   72  55  55 CALM      30.17F
HUNTINGTON*    PTSUNNY   73  52  48 E5        30.16F
PERU/GRISSOM   PTSUNNY   74  58  57 NE1       30.14F
MARION*        FAIR      74  45  35 S3        30.16F

$$
INZ028>050-272200-
CENTRAL INDIANA

CITY           SKY/WX    TMP DP  RH WIND       PRES   REMARKS
LAFAYETTE      PTSUNNY   77  56  48 SE5       30.13F
KOKOMO*        FAIR      73  55  53 S5        30.15F
MUNCIE*        PTSUNNY   72  57  59 E7        30.15F
INDIANAPOLIS   PTSUNNY   78  54  43 W3        30.12F

$$
MIZ043>046-050>051-056>058-064>065-071>073-077>080-272200-
SOUTHWEST LOWER MICHIGAN

CITY           SKY/WX    TMP DP  RH WIND       PRES   REMARKS
BATTLE CREEK   CLOUDY    68  54  60 SE6       30.19S
BENTON HARBOR  FAIR      69  57  65 NW3       30.16F
COLDWATER*     CLOUDY    67  55  66 CALM      30.18S
HILLSDALE*     CLOUDY    67  56  67 NE3       30.19S
HOLLAND        CLOUDY    70  58  65 VRB7      30.18S
GRAND RAPIDS   PTSUNNY   69  55  60 S5        30.17S
KALAMAZOO      CLOUDY    70  53  54 CALM      30.17F
STURGIS*       CLOUDY    68  57  68 CALM      30.17F
THREE RIVERS*  CLOUDY    70  55  59 CALM      30.17F

$$
OHZ001>008-015>018-024>025-272200-
NORTHWEST OHIO

CITY           SKY/WX    TMP DP  RH WIND       PRES   REMARKS
WAUSEON*       CLOUDY    70  55  60 VRB3      30.18R
DEFIANCE       CLOUDY    73  54  51 CALM      30.17R
FINDLAY        CLOUDY    75  54  47 VRB3      30.15R
TOLEDO EXPRESS CLOUDY    69  54  58 NE7       30.17R
TOLEDO METCALF CLOUDY    70  54  56 NE6       30.18R
LIMA           CLOUDY    74  55  51 CALM      30.16R

$$
AND FOR LAKE MICHIGAN COASTAL AND OPEN LAKE BUOY OBSERVATIONS

STATION/POSITION TEMP    WIND        PRES    VSBY  WAVE
                 AIR SEA DIR/SP/G                  HT/PER
                 (F)     (DEG/KT/KT) (MB)    (MI)  (FT/S)
CALUMET HARBOR            50/  6/  8   N/A
MICHIGAN CITY     67     340/  3/  4   N/A
BURNS HARBOR      67      40/  5/  6 1021.7F
SAINT JOSEPH      68     290/  4/  5 1022.4F
SOUTH LAKE BUOY   66 68  200/  6/  8 1021.3F
4 MI NW BRIDGMAN  67 71  350/  4/  6   N/A           1
MICHIGAN CITY     67 72  340/  2/  4   N/A           1

$$
&&



USA.gov is the U.S. government's official web portal to all federal, state and local government web resources and services.